,,Stat6,,Stat2,,Stat8,,Stat9,,Stat10,,Wind1,,Wind1,
time,status,PA1M_AVG,status,PR1M_SUM,status,RH1M_AVG,status,SR1M_AVG,status,TA1M_AVG,status,W1dAve1m,status,W1sAve1m,
2005-01-30, 00:00:00,VALID,917.999,VALID,0,VALID,100,VALID,0.0169808,VALID,18.3712,VALID,65,VALID,0.374814,
2005-01-30, 00:01:00,VALID,917.993,VALID,0,VALID,100,VALID,0,VALID,18.3682,VALID,65,VALID,0.269817,
2005-01-30, 00:02:00,VALID,917.99,VALID,0,VALID,100,VALID,0.0169808,VALID,18.3297,VALID,65,VALID,0.193452,
2005-01-30, 00:03:00,VALID,917.988,VALID,0,VALID,100,VALID,0.0169808,VALID,18.3001,VALID,43,VALID,0.645486,
2005-01-30, 00:04:00,VALID,917.985,VALID,0,VALID,100,VALID,0.0169808,VALID,18.3163,VALID,31,VALID,0.564596,
2005-01-30, 00:05:00,VALID,917.987,VALID,0,VALID,100,VALID,-0.0509425,VALID,18.3331,VALID,336,VALID,0.357851,
2005-01-30, 00:06:00,VALID,917.994,VALID,0,VALID,100,VALID,-0.0849042,VALID,18.3732,VALID,294,VALID,0.285823,
2005-01-30, 00:07:00,VALID,917.997,VALID,0,VALID,100,VALID,-0.0849042,VALID,18.3889,VALID,294,VALID,0.163132,
2005-01-30, 00:08:00,VALID,918,VALID,0,VALID,100,VALID,-0.0679233,VALID,18.4177,VALID,294,VALID,0,
2005-01-30, 00:09:00,VALID,918.008,VALID,0,VALID,100,VALID,-0.101885,VALID,18.4463,VALID,356,VALID,0.476385,
2005-01-30, 00:10:00,VALID,918.023,VALID,0,VALID,100,VALID,-0.0849042,VALID,18.5174,VALID,7,VALID,0.3125,
2005-01-30, 00:11:00,VALID,918.027,VALID,0,VALID,100,VALID,-0.0679233,VALID,18.5953,VALID,3,VALID,0.355841,
2005-01-30, 00:12:00,VALID,918.047,VALID,0,VALID,100,VALID,-0.0849042,VALID,18.647,VALID,4,VALID,0.186523,
2005-01-30, 00:13:00,VALID,918.04,VALID,0,VALID,100,VALID,-0.0849042,VALID,18.6433,VALID,4,VALID,0,
2005-01-30, 00:14:00,VALID,918.043,VALID,0,VALID,100,VALID,-0.101885,VALID,18.6599,VALID,4,VALID,0,
2005-01-30, 00:15:00,VALID,918.023,VALID,0,VALID,100,VALID,-0.101885,VALID,18.6758,VALID,4,VALID,0,
2005-01-30, 00:16:00,VALID,918.016,VALID,0,VALID,100,VALID,-0.101885,VALID,18.6957,VALID,4,VALID,0,
2005-01-30, 00:17:00,VALID,918.038,VALID,0,VALID,100,VALID,-0.101885,VALID,18.7081,VALID,4,VALID,0,
2005-01-30, 00:18:00,VALID,918.055,VALID,0,VALID,100,VALID,-0.101885,VALID,18.7337,VALID,4,VALID,0.248326,
2005-01-30, 00:19:00,VALID,918.074,VALID,0,VALID,100,VALID,-0.101885,VALID,18.7335,VALID,4,VALID,0.51399,
2005-01-30, 00:20:00,VALID,918.082,VALID,0,VALID,100,VALID,-0.0509425,VALID,18.7551,VALID,7,VALID,0.888849,
2005-01-30, 00:21:00,VALID,918.109,VALID,0,VALID,100,VALID,0,VALID,18.8003,VALID,9,VALID,0.48971,
2005-01-30, 00:22:00,VALID,918.113,VALID,0,VALID,100,VALID,0,VALID,18.8559,VALID,9,VALID,0.446378,
2005-01-30, 00:23:00,VALID,918.124,VALID,0,VALID,100,VALID,-0.0169808,VALID,18.8716,VALID,9,VALID,0.206174,
2005-01-30, 00:24:00,VALID,918.13,VALID,0,VALID,99.9514,VALID,-0.0169808,VALID,18.8743,VALID,6,VALID,0.243576,
2005-01-30, 00:25:00,VALID,918.099,VALID,0,VALID,99.765,VALID,-0.0339617,VALID,18.9136,VALID,273,VALID,0.348514,
2005-01-30, 00:26:00,VALID,918.053,VALID,0,VALID,99.531,VALID,0,VALID,18.9297,VALID,340,VALID,0.328125,
2005-01-30, 00:27:00,VALID,918.052,VALID,0,VALID,99.4013,VALID,0,VALID,18.9749,VALID,16,VALID,0.509718,
2005-01-30, 00:28:00,VALID,918.078,VALID,0,VALID,99.2538,VALID,0,VALID,19.0109,VALID,5,VALID,0.611861,
2005-01-30, 00:29:00,VALID,918.072,VALID,0,VALID,99.0936,VALID,0,VALID,18.9781,VALID,8,VALID,0.821007,
2005-01-30, 00:30:00,VALID,918.081,VALID,0,VALID,99.072,VALID,-0.0169808,VALID,18.9816,VALID,16,VALID,0.821057,
2005-01-30, 00:31:00,VALID,918.07,VALID,0,VALID,99.0694,VALID,-0.0339617,VALID,18.9751,VALID,16,VALID,0.827943,
2005-01-30, 00:32:00,VALID,918.046,VALID,0,VALID,98.9741,VALID,0.0169808,VALID,18.9553,VALID,16,VALID,0.707639,
2005-01-30, 00:33:00,VALID,918.036,VALID,0,VALID,98.9448,VALID,-0.0169808,VALID,18.9583,VALID,16,VALID,0.273607,
2005-01-30, 00:34:00,VALID,918.015,VALID,0,VALID,99.0504,VALID,0,VALID,18.9814,VALID,16,VALID,0.0628551,
2005-01-30, 00:35:00,VALID,918.006,VALID,0,VALID,98.9931,VALID,-0.0169808,VALID,18.9714,VALID,16,VALID,0.173874,
2005-01-30, 00:36:00,VALID,918.018,VALID,0,VALID,99.0198,VALID,-0.0169808,VALID,18.9784,VALID,16,VALID,0.162348,
2005-01-30, 00:37:00,VALID,918.01,VALID,0,VALID,99.1127,VALID,0,VALID,18.9615,VALID,16,VALID,0.333394,
2005-01-30, 00:38:00,VALID,918.043,VALID,0,VALID,99.292,VALID,0,VALID,18.9652,VALID,21,VALID,0.654154,
2005-01-30, 00:39:00,VALID,918.04,VALID,0,VALID,99.4102,VALID,0,VALID,18.9583,VALID,16,VALID,0.967685,
2005-01-30, 00:40:00,VALID,918.057,VALID,0,VALID,99.4001,VALID,-0.0339617,VALID,18.9359,VALID,221,VALID,0.591882,
2005-01-30, 00:41:00,VALID,918.025,VALID,0,VALID,99.3873,VALID,-0.0509425,VALID,18.926,VALID,223,VALID,0.585193,
2005-01-30, 00:42:00,VALID,918.004,VALID,0,VALID,99.2818,VALID,-0.0169808,VALID,18.9779,VALID,284,VALID,0.335768,
2005-01-30, 00:43:00,VALID,917.982,VALID,0,VALID,99.2653,VALID,-0.0849042,VALID,19.0144,VALID,351,VALID,0.881324,
2005-01-30, 00:44:00,VALID,917.966,VALID,0,VALID,99.2271,VALID,-0.0509425,VALID,19.0079,VALID,11,VALID,0.94077,
2005-01-30, 00:45:00,VALID,917.962,VALID,0,VALID,99.1674,VALID,-0.0169808,VALID,18.9816,VALID,360,VALID,0.373402,
2005-01-30, 00:46:00,VALID,917.972,VALID,0,VALID,99.2704,VALID,0,VALID,18.9389,VALID,269,VALID,0.450707,
2005-01-30, 00:47:00,VALID,917.947,VALID,0,VALID,99.3721,VALID,-0.0169808,VALID,18.9325,VALID,104,VALID,0.805804,
2005-01-30, 00:48:00,VALID,917.909,VALID,0,VALID,99.4891,VALID,-0.0169808,VALID,18.9424,VALID,20,VALID,1.42816,
2005-01-30, 00:49:00,VALID,917.918,VALID,0,VALID,99.5374,VALID,0,VALID,18.9225,VALID,17,VALID,0.994855,
2005-01-30, 00:50:00,VALID,917.92,VALID,0,VALID,99.5488,VALID,-0.101885,VALID,18.9339,VALID,20,VALID,0.120722,
2005-01-30, 00:51:00,VALID,917.917,VALID,0,VALID,99.5768,VALID,-0.135847,VALID,18.9242,VALID,20,VALID,0.121951,
2005-01-30, 00:52:00,VALID,917.913,VALID,0,VALID,99.6226,VALID,-0.101885,VALID,18.9207,VALID,20,VALID,0.176054,
2005-01-30, 00:53:00,VALID,917.908,VALID,0,VALID,99.6836,VALID,-0.101885,VALID,18.9307,VALID,20,VALID,0.295703,
2005-01-30, 00:54:00,VALID,917.92,VALID,0,VALID,99.7218,VALID,-0.101885,VALID,18.9408,VALID,19,VALID,0.734375,
2005-01-30, 00:55:00,VALID,917.93,VALID,0,VALID,99.7714,VALID,-0.101885,VALID,18.9369,VALID,6,VALID,0.473505,
2005-01-30, 00:56:00,VALID,917.92,VALID,0,VALID,99.765,VALID,-0.101885,VALID,18.9242,VALID,17,VALID,0.639205,
2005-01-30, 00:57:00,VALID,917.9,VALID,0,VALID,99.7968,VALID,-0.118866,VALID,18.9277,VALID,15,VALID,0.682745,
2005-01-30, 00:58:00,VALID,917.91,VALID,0,VALID,99.7904,VALID,-0.0849042,VALID,18.9277,VALID,7,VALID,0.858594,
2005-01-30, 00:59:00,VALID,917.873,VALID,0,VALID,99.662,VALID,-0.101885,VALID,18.9304,VALID,352,VALID,1.87729,
2005-01-30, 01:00:00,VALID,917.883,VALID,0,VALID,99.2615,VALID,-0.0849042,VALID,18.9629,VALID,303,VALID,1.01359,
2005-01-30, 01:01:00,VALID,917.878,VALID,0,VALID,99.0122,VALID,-0.0849042,VALID,19.0178,VALID,24,VALID,1.1237,
2005-01-30, 01:02:00,VALID,917.857,VALID,0,VALID,98.9016,VALID,-0.101885,VALID,19.0566,VALID,19,VALID,1.12101,
2005-01-30, 01:03:00,VALID,917.834,VALID,0,VALID,98.6892,VALID,-0.101885,VALID,19.0437,VALID,8,VALID,0.930246,
2005-01-30, 01:04:00,VALID,917.804,VALID,0,VALID,98.5036,VALID,-0.0849042,VALID,19.0598,VALID,3,VALID,1.74253,
2005-01-30, 01:05:00,VALID,917.8,VALID,0,VALID,98.3662,VALID,-0.0339617,VALID,19.0812,VALID,15,VALID,1.3663,
2005-01-30, 01:06:00,VALID,917.798,VALID,0,VALID,98.3039,VALID,0.0509425,VALID,19.0736,VALID,18,VALID,1.17813,
2005-01-30, 01:07:00,VALID,917.76,VALID,0,VALID,98.3942,VALID,0,VALID,19.0867,VALID,22,VALID,1.59335,
2005-01-30, 01:08:00,VALID,917.757,VALID,0,VALID,98.3535,VALID,0.0169808,VALID,19.0743,VALID,351,VALID,1.44512,
2005-01-30, 01:09:00,VALID,917.732,VALID,0,VALID,98.2404,VALID,0,VALID,19.0616,VALID,6,VALID,1.0843,
2005-01-30, 01:10:00,VALID,917.714,VALID,0,VALID,98.3739,VALID,0,VALID,19.081,VALID,22,VALID,1.07457,
2005-01-30, 01:11:00,VALID,917.686,VALID,0,VALID,98.4336,VALID,0,VALID,19.0646,VALID,355,VALID,1.09189,
2005-01-30, 01:12:00,VALID,917.677,VALID,0,VALID,98.3268,VALID,0,VALID,19.0651,VALID,341,VALID,1.16552,
2005-01-30, 01:13:00,VALID,917.646,VALID,0,VALID,98.2225,VALID,0.0169808,VALID,19.0452,VALID,326,VALID,0.788318,
2005-01-30, 01:14:00,VALID,917.601,VALID,0,VALID,98.2315,VALID,0,VALID,19.041,VALID,347,VALID,0.65625,
2005-01-30, 01:15:00,VALID,917.592,VALID,0,VALID,98.323,VALID,0.0169808,VALID,19.0517,VALID,7,VALID,1.27195,
2005-01-30, 01:16:00,VALID,917.592,VALID,0,VALID,98.3039,VALID,0,VALID,19.0514,VALID,4,VALID,1.69364,
2005-01-30, 01:17:00,VALID,917.576,VALID,0,VALID,98.3077,VALID,0,VALID,19.0646,VALID,1,VALID,1.44455,
2005-01-30, 01:18:00,VALID,917.584,VALID,0,VALID,98.2137,VALID,0,VALID,19.0775,VALID,357,VALID,0.978743,
2005-01-30, 01:19:00,VALID,917.593,VALID,0,VALID,98.0331,VALID,0.0339617,VALID,19.0807,VALID,333,VALID,0.893643,
2005-01-30, 01:20:00,VALID,917.577,VALID,0,VALID,98.0585,VALID,0.0169808,VALID,19.0937,VALID,9,VALID,0.616146,
2005-01-30, 01:21:00,VALID,917.558,VALID,0,VALID,98.2035,VALID,0,VALID,19.1066,VALID,3,VALID,0.463778,
2005-01-30, 01:22:00,VALID,917.513,VALID,0,VALID,98.3662,VALID,0,VALID,19.1003,VALID,358,VALID,0.83087,
2005-01-30, 01:23:00,VALID,917.509,VALID,0,VALID,98.1157,VALID,-0.0169808,VALID,19.0974,VALID,1,VALID,1.05888,
2005-01-30, 01:24:00,VALID,917.492,VALID,0,VALID,98.2747,VALID,0,VALID,19.1038,VALID,346,VALID,1.15262,
2005-01-30, 01:25:00,VALID,917.488,VALID,0,VALID,98.3077,VALID,0,VALID,19.0939,VALID,360,VALID,0.589844,
2005-01-30, 01:26:00,VALID,917.493,VALID,0,VALID,98.4845,VALID,-0.0169808,VALID,19.1041,VALID,1,VALID,0.442522,
2005-01-30, 01:27:00,VALID,917.489,VALID,0,VALID,98.4425,VALID,0,VALID,19.0743,VALID,289,VALID,0.725109,
2005-01-30, 01:28:00,VALID,917.459,VALID,0,VALID,98.5354,VALID,-0.0169808,VALID,19.0745,VALID,346,VALID,0.446039,
2005-01-30, 01:29:00,VALID,917.441,VALID,0,VALID,98.6803,VALID,-0.0169808,VALID,19.0872,VALID,10,VALID,0.471128,
2005-01-30, 01:30:00,VALID,917.429,VALID,0,VALID,98.7808,VALID,0,VALID,19.0939,VALID,9,VALID,0.364901,
2005-01-30, 01:31:00,VALID,917.414,VALID,0,VALID,98.9258,VALID,-0.0169808,VALID,19.0978,VALID,9,VALID,0.34375,
2005-01-30, 01:32:00,VALID,917.43,VALID,0,VALID,98.9982,VALID,-0.0169808,VALID,19.081,VALID,325,VALID,0.37843,
2005-01-30, 01:33:00,VALID,917.409,VALID,0,VALID,99.0542,VALID,0,VALID,19.075,VALID,264,VALID,0.492365,
2005-01-30, 01:34:00,VALID,917.42,VALID,0,VALID,99.0911,VALID,-0.0339617,VALID,19.0646,VALID,6,VALID,1.09784,
2005-01-30, 01:35:00,VALID,917.411,VALID,0,VALID,99.119,VALID,-0.0169808,VALID,19.0648,VALID,13,VALID,1.19103,
2005-01-30, 01:36:00,VALID,917.42,VALID,0,VALID,99.0046,VALID,0,VALID,19.0492,VALID,322,VALID,0.841546,
2005-01-30, 01:37:00,VALID,917.41,VALID,0,VALID,99.1394,VALID,0,VALID,19.0351,VALID,16,VALID,1.35065,
2005-01-30, 01:38:00,VALID,917.39,VALID,0,VALID,99.2551,VALID,0,VALID,19.0581,VALID,17,VALID,1.01992,
2005-01-30, 01:39:00,VALID,917.389,VALID,0,VALID,99.2513,VALID,-0.0169808,VALID,19.0586,VALID,357,VALID,0.382449,
2005-01-30, 01:40:00,VALID,917.364,VALID,0,VALID,99.2754,VALID,-0.0169808,VALID,19.0551,VALID,354,VALID,0.15282,
2005-01-30, 01:41:00,VALID,917.347,VALID,0,VALID,99.3721,VALID,0,VALID,19.0648,VALID,354,VALID,0.0773983,
2005-01-30, 01:42:00,VALID,917.325,VALID,0,VALID,99.4624,VALID,0,VALID,19.0678,VALID,354,VALID,0.00297619,
2005-01-30, 01:43:00,VALID,917.31,VALID,0,VALID,99.414,VALID,-0.0169808,VALID,19.0681,VALID,262,VALID,0.165968,
2005-01-30, 01:44:00,VALID,917.286,VALID,0,VALID,99.3581,VALID,0,VALID,19.0549,VALID,10,VALID,0.661701,
2005-01-30, 01:45:00,VALID,917.27,VALID,0,VALID,99.498,VALID,0,VALID,19.0882,VALID,6,VALID,0.395232,
2005-01-30, 01:46:00,VALID,917.246,VALID,0,VALID,99.5336,VALID,-0.0339617,VALID,19.0745,VALID,335,VALID,0.554874,
2005-01-30, 01:47:00,VALID,917.224,VALID,0,VALID,99.4853,VALID,-0.0169808,VALID,19.0681,VALID,309,VALID,0.0339753,
2005-01-30, 01:48:00,VALID,917.203,VALID,0,VALID,99.5946,VALID,-0.0339617,VALID,19.0549,VALID,329,VALID,0.250762,
2005-01-30, 01:49:00,VALID,917.214,VALID,0,VALID,99.6595,VALID,0,VALID,19.0544,VALID,347,VALID,0.473404,
2005-01-30, 01:50:00,VALID,917.187,VALID,0,VALID,99.6442,VALID,0,VALID,19.0417,VALID,15,VALID,1.51786,
2005-01-30, 01:51:00,VALID,917.167,VALID,0,VALID,99.5743,VALID,0,VALID,19.0154,VALID,9,VALID,1.85529,
2005-01-30, 01:52:00,VALID,917.162,VALID,0,VALID,99.4547,VALID,0,VALID,19.0065,VALID,352,VALID,1.25107,
2005-01-30, 01:53:00,VALID,917.148,VALID,0,VALID,99.4916,VALID,0.0169808,VALID,18.9998,VALID,3,VALID,0.508929,
2005-01-30, 01:54:00,VALID,917.144,VALID,0,VALID,99.5209,VALID,0,VALID,18.9906,VALID,348,VALID,0.296875,
2005-01-30, 01:55:00,VALID,917.12,VALID,0,VALID,99.5387,VALID,0,VALID,18.9739,VALID,334,VALID,0.427326,
2005-01-30, 01:56:00,VALID,917.113,VALID,0,VALID,99.5946,VALID,0,VALID,18.9769,VALID,360,VALID,0.552401,
2005-01-30, 01:57:00,VALID,917.1,VALID,0,VALID,99.5704,VALID,0,VALID,18.9871,VALID,3,VALID,0.452363,
2005-01-30, 01:58:00,VALID,917.102,VALID,0,VALID,99.6646,VALID,0,VALID,18.9873,VALID,3,VALID,0.417151,
2005-01-30, 01:59:00,VALID,917.085,VALID,0,VALID,99.723,VALID,-0.0169808,VALID,18.9869,VALID,350,VALID,0.524771,
2005-01-30, 02:00:00,VALID,917.059,VALID,0,VALID,99.7574,VALID,0,VALID,18.9834,VALID,352,VALID,0.345279,
2005-01-30, 02:01:00,VALID,917.037,VALID,0,VALID,99.8222,VALID,0.0169808,VALID,18.9809,VALID,5,VALID,0.785442,
2005-01-30, 02:02:00,VALID,917.009,VALID,0,VALID,99.7294,VALID,0,VALID,18.968,VALID,309,VALID,0.869965,
2005-01-30, 02:03:00,VALID,917.006,VALID,0,VALID,99.7319,VALID,0,VALID,18.9613,VALID,279,VALID,0.175781,
2005-01-30, 02:04:00,VALID,916.998,VALID,0,VALID,99.8591,VALID,0,VALID,18.991,VALID,278,VALID,0.020419,
2005-01-30, 02:05:00,VALID,916.998,VALID,0,VALID,99.9481,VALID,0,VALID,18.9866,VALID,278,VALID,0.0640244,
2005-01-30, 02:06:00,VALID,916.99,VALID,0,VALID,99.8744,VALID,-0.0169808,VALID,18.9873,VALID,314,VALID,0.276414,
2005-01-30, 02:07:00,VALID,916.998,VALID,0,VALID,99.9603,VALID,-0.0339617,VALID,18.9938,VALID,18,VALID,0.648242,
2005-01-30, 02:08:00,VALID,916.984,VALID,0,VALID,99.9262,VALID,-0.0169808,VALID,18.9645,VALID,310,VALID,0.923437,
2005-01-30, 02:09:00,VALID,917.009,VALID,0,VALID,99.9352,VALID,-0.0339617,VALID,18.9615,VALID,313,VALID,0.438978,
2005-01-30, 02:10:00,VALID,917.008,VALID,0,VALID,99.9931,VALID,0,VALID,18.9543,VALID,320,VALID,0.258557,
2005-01-30, 02:11:00,VALID,917.002,VALID,0,VALID,99.9939,VALID,0,VALID,18.9509,VALID,320,VALID,0.0024858,
2005-01-30, 02:12:00,VALID,917.003,VALID,0,VALID,100,VALID,0,VALID,18.961,VALID,330,VALID,0.116477,
2005-01-30, 02:13:00,VALID,916.99,VALID,0,VALID,100,VALID,-0.0169808,VALID,18.964,VALID,354,VALID,0.480824,
2005-01-30, 02:14:00,VALID,916.995,VALID,0,VALID,100,VALID,0,VALID,18.9903,VALID,11,VALID,0.697569,
2005-01-30, 02:15:00,VALID,916.995,VALID,0,VALID,100,VALID,-0.0169808,VALID,18.9806,VALID,8,VALID,0.386161,
2005-01-30, 02:16:00,VALID,916.993,VALID,0,VALID,100,VALID,0.0169808,VALID,18.9608,VALID,8,VALID,0.213778,
2005-01-30, 02:17:00,VALID,916.987,VALID,0,VALID,100,VALID,0,VALID,18.961,VALID,8,VALID,0.0710565,
2005-01-30, 02:18:00,VALID,916.973,VALID,0,VALID,100,VALID,0.0169808,VALID,18.9744,VALID,7,VALID,0.307031,
2005-01-30, 02:19:00,VALID,916.965,VALID,0,VALID,100,VALID,-0.0339617,VALID,18.968,VALID,5,VALID,0.0357143,
2005-01-30, 02:20:00,VALID,916.977,VALID,0,VALID,100,VALID,0,VALID,18.9675,VALID,26,VALID,1.19386,
2005-01-30, 02:21:00,VALID,916.968,VALID,0,VALID,100,VALID,-0.0339617,VALID,18.9841,VALID,22,VALID,1.24276,
2005-01-30, 02:22:00,VALID,916.939,VALID,0.2,VALID,100,VALID,-0.0169808,VALID,18.9839,VALID,360,VALID,1.12589,
2005-01-30, 02:23:00,VALID,916.943,VALID,0,VALID,100,VALID,-0.0339617,VALID,18.9844,VALID,3,VALID,0.817773,
2005-01-30, 02:24:00,VALID,916.931,VALID,0,VALID,100,VALID,-0.0169808,VALID,18.9744,VALID,24,VALID,0.916349,
2005-01-30, 02:25:00,VALID,916.918,VALID,0,VALID,100,VALID,-0.0339617,VALID,18.9809,VALID,19,VALID,0.422447,
2005-01-30, 02:26:00,VALID,916.909,VALID,0,VALID,100,VALID,-0.0169808,VALID,18.9839,VALID,19,VALID,0.068859,
2005-01-30, 02:27:00,VALID,916.915,VALID,0,VALID,100,VALID,0,VALID,18.971,VALID,50,VALID,0.0167683,
2005-01-30, 02:28:00,VALID,916.912,VALID,0,VALID,100,VALID,-0.0509425,VALID,18.968,VALID,53,VALID,0.13872,
2005-01-30, 02:29:00,VALID,916.911,VALID,0,VALID,100,VALID,-0.0169808,VALID,18.9645,VALID,52,VALID,0.047061,
2005-01-30, 02:30:00,VALID,916.903,VALID,0,VALID,100,VALID,-0.0169808,VALID,18.9513,VALID,47,VALID,0.343369,
2005-01-30, 02:31:00,VALID,916.924,VALID,0,VALID,100,VALID,-0.0509425,VALID,18.9712,VALID,34,VALID,0.460938,
2005-01-30, 02:32:00,VALID,916.931,VALID,0,VALID,100,VALID,-0.0169808,VALID,18.9742,VALID,12,VALID,0.251598,
2005-01-30, 02:33:00,VALID,916.912,VALID,0,VALID,100,VALID,-0.0339617,VALID,18.9682,VALID,7,VALID,0.0150799,
2005-01-30, 02:34:00,VALID,916.89,VALID,0,VALID,100,VALID,0,VALID,18.958,VALID,23,VALID,0.239236,
2005-01-30, 02:35:00,VALID,916.868,VALID,0,VALID,100,VALID,-0.0849042,VALID,18.9747,VALID,32,VALID,0.651643,
2005-01-30, 02:36:00,VALID,916.865,VALID,0,VALID,100,VALID,0,VALID,18.9647,VALID,11,VALID,0.430959,
2005-01-30, 02:37:00,VALID,916.848,VALID,0.2,VALID,100,VALID,-0.0339617,VALID,18.9583,VALID,13,VALID,0.31468,
2005-01-30, 02:38:00,VALID,916.845,VALID,0,VALID,100,VALID,-0.0339617,VALID,18.9551,VALID,14,VALID,0.381747,
2005-01-30, 02:39:00,VALID,916.859,VALID,0,VALID,100,VALID,-0.0169808,VALID,18.9585,VALID,3,VALID,0.247768,
2005-01-30, 02:40:00,VALID,916.859,VALID,0,VALID,100,VALID,-0.0339617,VALID,18.9551,VALID,3,VALID,0.0621094,
2005-01-30, 02:41:00,VALID,916.851,VALID,0,VALID,100,VALID,-0.0509425,VALID,18.9449,VALID,4,VALID,0.214286,
2005-01-30, 02:42:00,VALID,916.835,VALID,0,VALID,100,VALID,-0.0169808,VALID,18.9615,VALID,6,VALID,0.614769,
2005-01-30, 02:43:00,VALID,916.827,VALID,0,VALID,100,VALID,-0.0339617,VALID,18.9742,VALID,355,VALID,0.341619,
2005-01-30, 02:44:00,VALID,916.793,VALID,0,VALID,100,VALID,0,VALID,18.9548,VALID,19,VALID,1.19161,
2005-01-30, 02:45:00,VALID,916.791,VALID,0,VALID,100,VALID,-0.0169808,VALID,18.9555,VALID,309,VALID,0.378196,
2005-01-30, 02:46:00,VALID,916.783,VALID,0,VALID,100,VALID,0,VALID,18.9384,VALID,293,VALID,0.106286,
2005-01-30, 02:47:00,VALID,916.774,VALID,0,VALID,100,VALID,-0.0169808,VALID,18.9484,VALID,293,VALID,0.0399503,
2005-01-30, 02:48:00,VALID,916.761,VALID,0,VALID,100,VALID,0,VALID,18.9451,VALID,294,VALID,0.197173,
2005-01-30, 02:49:00,VALID,916.752,VALID,0,VALID,100,VALID,0,VALID,18.9774,VALID,359,VALID,0.215661,
2005-01-30, 02:50:00,VALID,916.729,VALID,0,VALID,100,VALID,0,VALID,18.9839,VALID,3,VALID,0.000177557,
2005-01-30, 02:51:00,VALID,916.718,VALID,0,VALID,100,VALID,-0.0169808,VALID,18.994,VALID,3,VALID,0.0428779,
2005-01-30, 02:52:00,VALID,916.721,VALID,0,VALID,100,VALID,-0.0169808,VALID,18.9848,VALID,3,VALID,0.000332447,
2005-01-30, 02:53:00,VALID,916.711,VALID,0,VALID,100,VALID,-0.0509425,VALID,18.9804,VALID,3,VALID,0.00053267,
2005-01-30, 02:54:00,VALID,916.699,VALID,0,VALID,100,VALID,-0.0169808,VALID,18.9742,VALID,23,VALID,0.651736,
2005-01-30, 02:55:00,VALID,916.711,VALID,0,VALID,100,VALID,0,VALID,19,VALID,24,VALID,0.583097,
2005-01-30, 02:56:00,VALID,916.704,VALID,0.2,VALID,100,VALID,-0.0509425,VALID,19.0032,VALID,360,VALID,0.0689453,
2005-01-30, 02:57:00,VALID,916.69,VALID,0,VALID,100,VALID,-0.0169808,VALID,19.0136,VALID,360,VALID,0.215774,
2005-01-30, 02:58:00,VALID,916.693,VALID,0,VALID,100,VALID,-0.0509425,VALID,19.0166,VALID,360,VALID,0.241997,
2005-01-30, 02:59:00,VALID,916.695,VALID,0,VALID,100,VALID,-0.0509425,VALID,19.0293,VALID,360,VALID,0.109566,
2005-01-30, 03:00:00,VALID,916.678,VALID,0,VALID,100,VALID,-0.0509425,VALID,19.0229,VALID,15,VALID,0.746528,
2005-01-30, 03:01:00,VALID,916.696,VALID,0,VALID,100,VALID,-0.0339617,VALID,19.0136,VALID,24,VALID,0.20827,
2005-01-30, 03:02:00,VALID,916.681,VALID,0,VALID,100,VALID,-0.0339617,VALID,18.9806,VALID,24,VALID,0.210764,
2005-01-30, 03:03:00,VALID,916.669,VALID,0,VALID,100,VALID,0,VALID,18.9906,VALID,20,VALID,0.770389,
2005-01-30, 03:04:00,VALID,916.68,VALID,0,VALID,100,VALID,-0.0169808,VALID,18.997,VALID,11,VALID,0.914971,
2005-01-30, 03:05:00,VALID,916.669,VALID,0,VALID,100,VALID,-0.0849042,VALID,19.0007,VALID,35,VALID,0.528888,
2005-01-30, 03:06:00,VALID,916.669,VALID,0,VALID,100,VALID,-0.0509425,VALID,19.0072,VALID,34,VALID,0.303013,
2005-01-30, 03:07:00,VALID,916.686,VALID,0,VALID,100,VALID,-0.0679233,VALID,19.0104,VALID,79,VALID,0.268864,
2005-01-30, 03:08:00,VALID,916.659,VALID,0,VALID,100,VALID,-0.0339617,VALID,19.0037,VALID,155,VALID,0.413876,
2005-01-30, 03:09:00,VALID,916.658,VALID,0,VALID,100,VALID,-0.0849042,VALID,19.0044,VALID,36,VALID,0.761632,
2005-01-30, 03:10:00,VALID,916.657,VALID,0,VALID,100,VALID,-0.0679233,VALID,19.0174,VALID,354,VALID,0.529726,
2005-01-30, 03:11:00,VALID,916.654,VALID,0,VALID,100,VALID,-0.0679233,VALID,19.0296,VALID,11,VALID,0.434642,
2005-01-30, 03:12:00,VALID,916.666,VALID,0,VALID,100,VALID,-0.0339617,VALID,19.0397,VALID,35,VALID,0.372852,
2005-01-30, 03:13:00,VALID,916.655,VALID,0,VALID,100,VALID,-0.0679233,VALID,19.0328,VALID,28,VALID,0.131925,
2005-01-30, 03:14:00,VALID,916.651,VALID,0,VALID,100,VALID,-0.0679233,VALID,19.0291,VALID,68,VALID,0.244731,
2005-01-30, 03:15:00,VALID,916.648,VALID,0,VALID,100,VALID,-0.0169808,VALID,19.0388,VALID,43,VALID,0.0251116,
2005-01-30, 03:16:00,VALID,916.65,VALID,0,VALID,100,VALID,0,VALID,19.0395,VALID,43,VALID,0,
2005-01-30, 03:17:00,VALID,916.651,VALID,0,VALID,100,VALID,-0.0339617,VALID,19.0455,VALID,43,VALID,0.0442708,
2005-01-30, 03:18:00,VALID,916.656,VALID,0,VALID,100,VALID,-0.0169808,VALID,19.0388,VALID,41,VALID,0.034157,
2005-01-30, 03:19:00,VALID,916.607,VALID,0,VALID,100,VALID,0,VALID,19.0226,VALID,40,VALID,0.286272,
2005-01-30, 03:20:00,VALID,916.591,VALID,0,VALID,100,VALID,-0.0849042,VALID,19.0325,VALID,37,VALID,0.225675,
2005-01-30, 03:21:00,VALID,916.559,VALID,0,VALID,100,VALID,-0.101885,VALID,19.0459,VALID,37,VALID,0.0705128,
2005-01-30, 03:22:00,VALID,916.562,VALID,0,VALID,100,VALID,-0.0679233,VALID,19.0718,VALID,31,VALID,0.3125,
2005-01-30, 03:23:00,VALID,916.579,VALID,0,VALID,100,VALID,-0.101885,VALID,19.075,VALID,25,VALID,0.142987,
2005-01-30, 03:24:00,VALID,916.563,VALID,0,VALID,100,VALID,-0.0679233,VALID,19.0658,VALID,25,VALID,0.0443979,
2005-01-30, 03:25:00,VALID,916.563,VALID,0,VALID,100,VALID,-0.0679233,VALID,19.0524,VALID,28,VALID,0.663043,
2005-01-30, 03:26:00,VALID,916.548,VALID,0,VALID,100,VALID,-0.0679233,VALID,19.0589,VALID,28,VALID,0.551897,
2005-01-30, 03:27:00,VALID,916.548,VALID,0,VALID,100,VALID,-0.101885,VALID,19.0817,VALID,24,VALID,0.3125,
2005-01-30, 03:28:00,VALID,916.512,VALID,0,VALID,100,VALID,-0.101885,VALID,19.0974,VALID,16,VALID,0.0102896,
2005-01-30, 03:29:00,VALID,916.504,VALID,0,VALID,100,VALID,-0.0849042,VALID,19.1073,VALID,16,VALID,0,
2005-01-30, 03:30:00,VALID,916.481,VALID,0,VALID,100,VALID,-0.0849042,VALID,19.1041,VALID,16,VALID,0.0872093,
2005-01-30, 03:31:00,VALID,916.453,VALID,0,VALID,100,VALID,-0.0849042,VALID,19.0939,VALID,17,VALID,0.547783,
2005-01-30, 03:32:00,VALID,916.433,VALID,0,VALID,100,VALID,-0.101885,VALID,19.0978,VALID,21,VALID,0.866122,
2005-01-30, 03:33:00,VALID,916.438,VALID,0,VALID,100,VALID,-0.0679233,VALID,19.0976,VALID,18,VALID,0.85665,
2005-01-30, 03:34:00,VALID,916.422,VALID,0,VALID,100,VALID,-0.0849042,VALID,19.0817,VALID,9,VALID,0.847461,
2005-01-30, 03:35:00,VALID,916.407,VALID,0,VALID,100,VALID,-0.0169808,VALID,19.0616,VALID,20,VALID,1.28999,
2005-01-30, 03:36:00,VALID,916.406,VALID,0,VALID,100,VALID,0.0339617,VALID,19.0517,VALID,343,VALID,0.746911,
2005-01-30, 03:37:00,VALID,916.398,VALID,0,VALID,100,VALID,0.0509425,VALID,19.0187,VALID,1,VALID,0.606898,
2005-01-30, 03:38:00,VALID,916.393,VALID,0,VALID,100,VALID,0,VALID,19.009,VALID,6,VALID,0.765625,